Hourly Data Report for October 20, 2015

All times are specified in Local Standard Time (LST). Add 1 hour to adjust for Daylight Saving Time where and when it is observed.

KUGAARUK CLIMATE
NUNAVUT

68°32'15.060" N
89°47'47.020" W
15.80 m
2303094
71407
NBB

Download Data

Hourly Data (October 2015)
Hourly Data Report for October 20, 2015
Temp Definition
°C
Dew Point Temp Definition
°C
Rel Hum Definition
%
Wind Dir Definition
10's deg

Wind Spd Definition
km/h
Visibility Definition
km
Stn Press Definition
kPa
Hmdx Definition


Wind Chill Definition


Weather Definition


TIME
00:00 -10.4 -13.4 79 28 15   101.64   -17 LegendNANA
01:00 -11.1 -13.9 79 27 20   101.66   -19 LegendNANA
02:00 -11.4 -14.1 80 25 13   101.68   -18 LegendNANA
03:00 -11.8 -14.5 81 28 13   101.70   -18 LegendNANA
04:00 -11.7 -14.6 79 30 15   101.70   -19 LegendNANA
05:00 -11.5 -14.4 79 26 17   101.69   -19 LegendNANA
06:00 -10.9 -13.5 81 28 15   101.66   -18 LegendNANA
07:00 -10.9 -13.8 79 26 20   101.63   -19 LegendNANA
08:00 -11.5 -14.5 78 25 21   101.62   -20 LegendNANA
09:00 -11.7 -14.8 78 24 25   101.58   -21 LegendNANA
10:00 -11.2 -13.8 81 23 25   101.54   -20 LegendNANA
11:00 -10.9 -14.0 78 23 27   101.49   -20 LegendNANA
12:00 -11.3 -14.1 79 23 28   101.42   -21 LegendNANA
13:00 -11.1 -14.1 78 23 32   101.38   -21 LegendNANA
14:00 -11.4 -14.7 76 23 33   101.32   -22 LegendNANA
15:00 -11.6 -14.7 77 21 35   101.20   -22 LegendNANA
16:00 -10.9 -14.3 76 22 37   101.11   -22 LegendNANA
17:00 -10.5 -13.5 79 22 41   101.05   -22 LegendNANA
18:00 -9.9 -13.0 78 21 33   101.01   -20 LegendNANA
19:00 -9.6 -11.1 89 23 42   100.91   -20 LegendNANA
20:00 -9.5 -11.4 86 23 41   100.88   -20 LegendNANA
21:00 -9.0 -11.1 85 24 35   100.88   -19 LegendNANA
22:00 -8.6 -10.3 88 24 34   100.83   -18 LegendNANA
23:00 -8.2 -9.9 88 24 40   100.84   -18 LegendNANA

Notes on Data Quality.

Legend

  • E = Estimated
  • M = Missing
  • NA = Not Available
  • ‡ = Partner data that is not subject to review by the National Climate Archives
Date modified: